Powrót do katalogu

STARLINK-31006

AktywnyŁącznośćVLEO
NORAD 59024·PAYLOAD·🇺🇸 United States

Wystrzelony Feb 25, 2024 z Cape Canaveral Space Force Station

Loading…

Następne Przeloty (najbliższe 24 godziny)

TLE

ŚwieżeSource: CelesTrak SupGP

Epoka: Sep 14, 2026, 21:26 UTC

1 59024C 24038B   26257.89354167 -.00003878  00000+0 -14053-3 0  2572
2 59024  43.0014 348.0884 0001533 279.8701 200.1141 15.27566973    16

Śledź STARLINK-31006 w czasie rzeczywistym z AllMySat

Download on the App Store